Regional Weather Roundup
Issued by NWS

Home | Current Version | Previous Version | Text Only | Print | Product List | Glossary On
Versions: 1 2 3 4 5 6 7 8 9 10 11 12 13 14 15 16 17 18 19 20 21 22 23 24 25 26 27 28 29 30 31 32 33 34 35 36 37 38 39 40 41 42 43 44 45 46 47 48 49 50
000
ASUS43 KDMX 280301
RWRIA

WEATHER ROUNDUP FOR IOWA
NATIONAL WEATHER SERVICE DES MOINES IA
900 PM CST MON FEB 27 2017

NOTE: "FAIR" INDICATES FEW OR NO CLOUDS BELOW 12,000 FEET WITH NO
SIGNIFICANT WEATHER AND/OR OBSTRUCTIONS TO VISIBILITY.

* - THESE STATIONS ARE NOT NWS STATIONS...THUS NOT UNDER NWS
QUALITY CONTROL.  THEY ALSO DO NOT REPORT WEATHER SUCH
AS PRECIPITATION OR FOG.

IAZ001>003-012>014-020>022-031>034-043>046-280400-
   NORTHWEST IOWA

CITY           SKY/WX    TMP DP  RH WIND       PRES   REMARKS
CARROLL *      CLOUDY    43  34  70 SE14G24   29.79S
CHEROKEE *     CLOUDY    39  32  76 SE6       29.77F WCI  35
DENISON *      MOCLDY    43  30  61 SE14G20   29.73F
LE MARS *      CLOUDY    41  32  70 SE9       29.76S
SHELDON *      CLOUDY    39  36  87 SE15      29.76S WCI  31
SIOUX CITY     CLOUDY    40  31  70 E6        29.74F
SPENCER        CLOUDY    37  32  82 E7        29.80S WCI  32
STORM LAKE *   CLOUDY    39  30  70 SE8G14    29.77F WCI  34
$$

IAZ055>058-069>071-079>083-090>094-280400-
   SOUTHWEST IOWA

CITY           SKY/WX    TMP DP  RH WIND       PRES   REMARKS
ATLANTIC *     CLOUDY    46  32  57 CALM      29.75F
AUDUBON *      CLOUDY    43  34  70 N6        29.78F
CLARINDA *     CLOUDY    52  34  50 SE7       29.78F
COUNCIL BLFS * CLOUDY    45  32  61 SE5       29.73F
CRESTON *      CLOUDY    46  32  57 SE12      29.79S
HARLAN  *      CLOUDY    45  32  61 E5        29.79F
LAMONI         CLOUDY    51  30  44 CALM      29.79F
RED OAK *      CLOUDY    50  32  50 S9        29.75S
SHENANDOAH *   MOCLDY    50  34  53 SE9       29.75F
$$

IAZ047>049-059>061-072>074-084-280400-
   CENTRAL IOWA

CITY           SKY/WX    TMP DP  RH WIND       PRES   REMARKS
AMES           CLOUDY    47  34  60 E8        29.83F
ANKENY *       LGT RAIN  46  36  66 E10       29.83F
BOONE *        CLOUDY    43  36  75 E13       29.80F
CHARITON *     CLOUDY    50  34  53 SE9       29.81F
DES MOINES     CLOUDY    52  29  41 E9        29.82S
GRINNELL*      CLOUDY    45  35  68 E7        29.87S
KNOXVILLE *    CLOUDY    46  32  57 E9        29.81F
MARSHALLTOWN   LGT RAIN  44  36  73 E7        29.86F
NEWTON *       CLOUDY    46  34  61 E14       29.83F
PELLA *        LGT RAIN  47  34  60 E9        29.84F
PERRY *        CLOUDY    43  34  69 E13       29.79F
$$

IAZ004>006-015-016-023>025-035-036-280400-
   NORTH CENTRAL IOWA

CITY           SKY/WX    TMP DP  RH WIND       PRES   REMARKS
ALGONA *       CLOUDY    39  32  75 SE13G21   29.82S WCI  32
CLARION *      CLOUDY    39  36  87 SE15G21   29.83S WCI  31
ESTHERVILLE    CLOUDY    35  32  88 SE10      29.80S WCI  27
FORT DODGE *   MOCLDY    43  30  61 SE8       29.82S
MASON CITY     CLOUDY    38  30  73 SE13      29.86S WCI  30
FOREST CITY *  CLOUDY    37  32  81 S12       29.85R WCI  30
WEBSTER CITY * CLOUDY    41  34  75 SE15      29.80F
IOWA FALLS *   CLOUDY    42  35  75 SE9       29.87F
$$

IAZ007>011-017>019-026>030-037>042-050>054-066-280400-
   NORTHEAST IOWA

CITY           SKY/WX    TMP DP  RH WIND       PRES   REMARKS
CEDAR RAPIDS   LGT RAIN  45  37  73 E7        29.91R
CHARLES CITY * CLOUDY    41  34  75 SE13      29.88S
CLINTON *      CLOUDY    46  35  65 SE13      29.96S
DECORAH *      MOCLDY    41  32  70 SE10G17   29.90R
DUBUQUE        CLOUDY    44  33  65 SE8       29.95S
MONTICELLO *   CLOUDY    45  34  65 SE6       29.95R
OELWEIN *      CLOUDY    41  36  81 SE10      29.92S
WATERLOO       CLOUDY    46  31  55 SE9       29.90S
$$

IAZ064-065-067-068-078-280400-
   EAST CENTRAL IOWA

CITY           SKY/WX    TMP DP  RH WIND       PRES   REMARKS
DAVENPORT      LGT RAIN  48  34  58 E12       29.94F
IOWA CITY      LGT RAIN  50  35  56 NW7       29.94R
MUSCATINE *    CLOUDY    52  32  46 SE10      29.90F
QUAD CITIES    CLOUDY    49  34  56 E9        29.93F
$$

IAZ062-063-075>077-085>089-095>099-280400-
   SOUTHEAST IOWA

CITY           SKY/WX    TMP DP  RH WIND       PRES   REMARKS
BURLINGTON     CLOUDY    52  34  50 SE9       29.90F
FAIRFIELD *    CLOUDY    52  30  43 SE13      29.86F
FORT MADISON * CLOUDY    52  36  54 E9        29.90F
KEOKUK *       CLOUDY    52  34  50 E9        29.88F
CENTERVILLE *    N/A     50  32  50 SE8       29.84S
OTTUMWA        CLOUDY    51  29  42 SE13      29.84F
WASHINGTON *   CLOUDY    48  32  53 SE13      29.89S
$$

ABBREVIATIONS USED IN REMARKS
   TC - TEMPERATURES IN CELSIUS
  WCI - WIND CHILL INDEX
   HX - HEAT INDEX
  VSB - VISIBILITY
$$




USA.gov is the U.S. government's official web portal to all federal, state and local government web resources and services.